Regional Weather Roundup
Issued by NWS Kansas City/Pleasant Hill, MO

Home | Current Version | Previous Version | Text Only | Print | Product List | Glossary On
Versions: 1 2 3 4 5 6 7 8 9 10 11 12 13 14 15 16 17 18 19 20 21 22 23 24 25 26 27 28
000
ASUS43 KEAX 250510
RWREAX

WEATHER ROUNDUP FOR EASTERN KANSAS AND NORTHWEST MISSOURI
NATIONAL WEATHER SERVICE KANSAS CITY/PLEASANT HILL MO
1200 AM CDT SAT MAR 25 2017

KSZ040-057-103>105-MOZ028-029-037-043-250600-
...KANSAS CITY METROPOLITAN AREA...

CITY           SKY/WX    TMP DP  RH WIND       PRES   REMARKS
K.C. INTL      CLOUDY    57  56  96 N7        29.81R
K.C. DOWNTOWN  CLOUDY    59  57  93 N5        29.80R
LEES SUMMIT    CLOUDY    57  57 100 E6        29.80S
OLATHE - IXD   CLOUDY    55  52  89 NE7       29.78F
OLATHE - OJC   CLOUDY    58  56  93 N5        29.79S
LAWRENCE       CLOUDY    55  54  96 N16G25    29.80S

$$

MOZ001>008-011>017-020>025-030>033-038>040-044>046-053-054-250600-
...NORTHERN AND CENTRAL MISSOURI...

CITY           SKY/WX    TMP DP  RH WIND       PRES   REMARKS
ST. JOSEPH     CLOUDY    50  50 100 N16       29.84S
WARRENSBURG    CLOUDY    55  50  82 SW6       29.80S
WHITEMAN AFB   CLOUDY    56  56 100 SE3       29.80S
CLINTON        CLOUDY    55  48  76 S8        29.80F
SEDALIA        CLOUDY    58  49  72 NE6       29.82R
WARSAW         NOT AVBL
CHILLICOTHE      N/A     58  56  93 NE6       29.84F
KIRKSVILLE     CLOUDY    55  54  96 E5        29.90R

$$

MOZ041-047>049-056>058-063>065-088>090-097-250600-
...EASTERN AND SOUTHERN MISSOURI...

CITY           SKY/WX    TMP DP  RH WIND       PRES   REMARKS
ST. LOUIS INTL LGT RAIN  67  58  72 SE14      29.91F
SPIRIT OF STL  LGT RAIN  66  59  78 SE10      29.89F
COLUMBIA       CLOUDY    57  56  96 S6        29.87F
JEFFERSON CITY CLOUDY    60  54  80 SE6       29.88F
ROLLA          LGT RAIN  54  53  97 NW6       29.88F
OSAGE BEACH    MIX PCPN N/A N/A N/A S9        29.86F
SPRINGFIELD    MOCLDY    56  51  84 SE16      29.80F
BRANSON        LGT RAIN  54  54 100 E6        29.86F
JOPLIN         CLOUDY    58  53  84 SE8       29.79S
WEST PLAINS    LGT RAIN  55  53  93 W9        29.95S

$$

IAZ060-094-KSZ022-034>040-054-083-096-NEZ052-066-093-250600-
...KANSAS...SOUTHEAST NEBRASKA AND IOWA...

CITY           SKY/WX    TMP DP  RH WIND       PRES   REMARKS
TOPEKA         CLOUDY    52  51  97 N13G22    29.81R
MANHATTAN      CLOUDY    46  43  89 N12G20    29.86F
EMPORIA        LGT RAIN  50  50 100 N7        29.82F
CHANUTE        LGT RAIN  53  50  89 NW10      29.82F
WICHITA        CLOUDY    48  48 100 N15G26    29.86S
OMAHA          LGT RAIN  42  37  82 N15       29.99F WCI  34
LINCOLN        LGT RAIN  42  40  92 N15       29.99F WCI  34
FALLS CITY     LGT RAIN  45  44  97 N15       29.89F
LAMONI         CLOUDY    46  45  96 NE15G24   29.89F
DES MOINES     CLOUDY    44  42  93 NE14      29.97S

$$





USA.gov is the U.S. government's official web portal to all federal, state and local government web resources and services.